CST,Max TemperatureF,Mean TemperatureF,Min TemperatureF,Max Dew PointF,MeanDew PointF,Min DewpointF,Max Humidity, Mean Humidity, Min Humidity, Max Sea Level PressureIn, Mean Sea Level PressureIn, Min Sea Level PressureIn, Max VisibilityMiles, Mean VisibilityMiles, Min VisibilityMiles, Max Wind SpeedMPH, Mean Wind SpeedMPH, Max Gust SpeedMPH,PrecipitationIn, CloudCover, Events, WindDirDegrees
2013-12-1,55,44,33,37,33,27,93,71,51,30.14,30.06,29.93,10,10,4,8,4,,0.00,3,,225
2013-12-2,53,42,32,41,37,30,100,82,58,29.92,29.81,29.74,10,8,2,9,2,,0.00,3,,137
2013-12-3,55,46,37,50,44,36,100,93,82,29.79,29.75,29.72,5,3,0,10,5,,0.00,5,Fog,139
2013-12-4,66,54,41,61,53,41,100,89,68,29.79,29.70,29.60,10,6,0,20,9,29,0.00,6,Fog,170
2013-12-5,51,37,23,46,31,23,100,88,76,30.27,30.07,29.81,10,6,1,18,12,23,0.31,7,Rain-Snow,322
2013-12-6,24,22,19,23,20,14,100,91,74,30.51,30.33,30.22,10,4,0,13,7,,0.02,8,Snow,347
2013-12-7,21,13,5,14,9,1,85,75,68,30.67,30.58,30.49,10,10,10,14,7,,0.00,1,,5
2013-12-8,32,26,21,30,23,14,100,88,74,30.47,30.19,30.02,10,6,0,16,9,17,0.00,8,Fog-Rain-Snow,78
2013-12-9,30,24,19,28,21,16,100,83,64,30.29,30.22,30.07,10,8,1,16,9,18,0.01,5,Snow,274
2013-12-10,28,17,5,19,14,1,100,84,59,30.37,30.29,30.24,10,7,0,16,3,21,0.00,2,Fog-Snow,230
2013-12-11,32,16,1,25,12,-2,93,79,62,30.63,30.46,30.35,10,7,0,18,5,23,0.00,3,Fog-Snow,314
2013-12-12,21,7,-7,9,0,-9,92,66,42,30.65,30.52,30.34,10,10,7,13,2,,0.00,0,,195
2013-12-13,35,22,10,32,20,7,100,81,58,30.34,30.20,30.04,10,9,2,20,2,26,0.01,3,Rain-Snow,169
2013-12-14,33,32,30,34,32,27,100,95,80,30.06,29.91,29.77,10,6,0,22,6,24,0.35,8,Fog-Rain,331
2013-12-15,32,28,26,28,24,21,93,83,74,30.19,30.13,30.06,10,10,7,21,12,23,0.00,8,,259
2013-12-16,37,32,28,32,31,27,100,90,81,30.09,30.05,30.02,10,7,3,13,5,21,0.00,2,,176
2013-12-17,32,29,26,30,25,23,93,87,69,30.25,30.16,30.07,10,6,2,15,9,17,0.00,5,,279
2013-12-18,39,29,19,27,22,18,93,69,52,30.30,30.19,30.02,10,10,10,15,7,18,0.00,0,,185
2013-12-19,53,44,35,46,39,28,82,75,66,30.04,29.98,29.88,10,10,10,17,12,23,0.00,2,,190
2013-12-20,60,55,48,57,52,46,100,85,77,29.87,29.83,29.78,10,9,2,20,14,26,0.22,8,Rain,200
2013-12-21,46,42,37,45,38,36,100,95,93,29.83,29.67,29.45,10,6,1,16,8,18,1.60,8,Rain-Thunderstorm,2
2013-12-22,39,36,32,37,34,28,100,91,81,30.19,29.90,29.55,10,8,3,21,13,25,0.50,8,,268
2013-12-23,32,26,19,28,22,12,87,79,68,30.51,30.40,30.20,10,10,10,18,12,22,0.02,8,Snow,303
2013-12-24,21,16,10,14,8,0,79,66,53,30.64,30.55,30.43,10,10,10,16,9,22,0.00,1,Snow,268
2013-12-25,32,26,21,28,20,12,87,72,60,30.43,30.33,30.26,10,10,10,12,8,17,0.00,6,,207
2013-12-26,37,30,23,30,26,21,100,81,52,30.41,30.34,30.26,10,9,4,10,7,,0.00,1,,224
2013-12-27,46,38,30,32,30,27,93,78,57,30.42,30.35,30.29,10,10,10,12,6,,0.00,0,,205
2013-12-28,46,39,32,36,32,30,93,78,61,30.28,30.17,29.96,10,10,10,13,8,,0.01,0,,187
2013-12-29,44,34,24,36,30,21,100,88,71,30.20,30.00,29.87,10,9,3,22,8,28,0.00,7,Rain,294
2013-12-30,24,20,15,19,14,10,86,74,59,30.35,30.28,30.20,10,10,10,14,8,17,0.06,4,Snow,298
2013-12-31,35,29,23,27,21,18,86,70,52,30.43,30.31,30.23,10,10,7,16,7,17,0.01,2,Snow,226